Location: Unspecified
(0.0000°N, 0.0000°E)
Time: 12:33:16
(UTC+00:00)

Vanguard 2 - Pass Details

Date: 16 December 2017
Orbit: 553 x 2939 km, 32.9° (Epoch: 18 June)

Event Time Altitude Azimuth Distance (km) Brightness Sun altitude
Rises 04:39:48 0° 223° (SW) 5,460 11.7 -17.3°
Reaches altitude 10° 04:46:28 10° 198° (SSW) 4,987 11.7 -15.8°
Maximum altitude 04:52:52 14° 172° (S) 5,066 12.1 -14.4°
Drops below altitude 10° 05:00:00 10° 147° (SSE) 5,653 12.8 -12.7°
Sets 05:08:52 0° 124° (SE) 6,794 14.3 -10.7°
